This demonstration page uses our WeatherBlox Daily Observations layout. Learn more.

Left ArrowRight Arrow

Hourly Observations for April 23, 2019

Temp ( °F °C ) Dew Point ( °F °C ) Humidity (%) Winds ( mph kmh ) Pressure ( in mb ) Visibility ( mi km ) Precip ( " mm )
12:34 am 00:34 Cloudy 64 17.8 58 14.4 81 81 N 14 22 29.89 1012 10 16 0.00 0.00
12:53 am 00:53 Cloudy 61 16.1 52 11.1 72 72 N 10 17 29.88 1012 10 16 0.00 0.00
1:40 am 01:40 Mostly Cloudy 62 16.7 54 12.2 75 75 NNE 8 13 29.88 1012 10 16 0.00 0.00
1:53 am 01:53 Cloudy 63 17.2 54 12.2 73 73 NNE 8 13 29.86 1011 10 16 0.00 0.00
2:06 am 02:06 Cloudy 64 17.8 55 12.8 73 73 NNE 10 17 29.87 1012 10 16 0.00 0.00
2:53 am 02:53 Cloudy 63 17.2 54 12.2 73 73 NNE 12 19 29.84 1011 10 16 0.00 0.00
3:53 am 03:53 Cloudy 62 16.7 56 13.3 80 80 NE 10 17 29.83 1010 10 16 0.00 0.00
4:53 am 04:53 Cloudy 63 17.2 56 13.3 78 78 NE 10 17 29.83 1010 10 16 0.00 0.00
5:15 am 05:15 Cloudy with Nearby Thunderstorms 61 16.1 58 14.4 90 90 ENE 10 17 29.86 1011 5 8 0.00 0.03
5:26 am 05:26 Cloudy with Thunderstorms 61 16.1 58 14.4 90 90 ESE 8 13 29.86 1011 4 6 0.01 0.25
5:32 am 05:32 Cloudy with Thunderstorms 61 16.1 58 14.4 90 90 SSE 7 11 29.88 1012 4 6 0.03 0.76
5:42 am 05:42 Cloudy with Strong Thunderstorms 59 15 56 13.3 90 90 N 30 48 29.92 1013 2 3 0.15 3.81
5:49 am 05:49 Cloudy with Thunderstorms 57 14 55 13 94 94 N 17 28 29.92 1013 2 2 0.19 4.83
5:53 am 05:53 Cloudy with Thunderstorms 57 13.9 56 13.3 96 96 NNE 16 26 29.87 1011 3 5 0.19 4.83
5:58 am 05:58 Cloudy with Thunderstorms 57 13.9 55 12.8 93 93 NNE 18 30 29.92 1013 7 11 0.00 0.03
6:18 am 06:18 Mostly Cloudy with Nearby Thunderstorms 56 13.3 54 12.2 93 93 N 8 13 29.93 1013 10 16 0.00 0.03
6:28 am 06:28 Mostly Cloudy 57 13.9 55 12.8 93 93 NNE 9 15 29.93 1014 10 16 0.00 0.03
6:53 am 06:53 Mostly Cloudy 57 13.9 55 12.8 93 93 N 10 17 29.88 1012 10 16 0.00 0.03
7:30 am 07:30 Mostly Cloudy 58 14.4 56 13.3 93 93 N 12 19 29.94 1014 10 16 0.00 0.00
7:51 am 07:51 Cloudy 57 14 55 13 94 94 NNE 14 22 29.95 1014 10 16 0.00 0.00
7:53 am 07:53 Cloudy 58 14.4 55 12.8 90 90 NNE 14 22 29.90 1013 10 16 0.00 0.00
8:53 am 08:53 Cloudy 59 15 55 12.8 87 87 NNE 13 20 29.92 1013 10 16 0.00 0.00
9:53 am 09:53 Mostly Cloudy 62 16.7 55 12.8 78 78 NNE 16 26 29.93 1014 10 16 0.00 0.00
10:53 am 10:53 Cloudy 65 18.3 55 12.8 70 70 NNE 12 19 29.94 1014 10 16 0.00 0.00
11:53 am 11:53 Mostly Cloudy 66 18.9 55 12.8 68 68 NNE 14 22 29.93 1014 10 16 0.00 0.00
12:53 pm 12:53 Partly Cloudy 71 21.7 56 13.3 59 59 NE 12 19 29.92 1013 10 16 0.00 0.00
1:53 pm 13:53 Partly Cloudy 74 23.3 56 13.3 54 54 NE 8 13 29.88 1012 10 16 0.00 0.00
2:53 pm 14:53 Mostly Sunny 75 23.9 54 12.2 48 48 NNE 10 17 29.85 1011 10 16 0.00 0.00
3:53 pm 15:53 Mostly Sunny 77 25 54 12.2 45 45 NNE 12 19 29.82 1010 10 16 0.00 0.00
4:53 pm 16:53 Partly Cloudy 76 24.4 54 12.2 47 47 NNE 10 17 29.80 1009 10 16 0.00 0.00
5:53 pm 17:53 Partly Cloudy 76 24.4 54 12.2 47 47 NNE 17 28 29.79 1009 10 16 0.00 0.00
6:53 pm 18:53 Sunny 75 23.9 53 11.7 46 46 NNE 18 30 29.80 1009 10 16 0.00 0.00
7:20 pm 19:20 Sunny with Nearby Thunderstorms 72 22.2 53 11.7 52 52 NNE 13 20 29.76 1008 10 16 0.00 0.00
7:35 pm 19:35 Sunny 71 21.7 53 11.7 53 53 NNE 14 22 29.78 1009 10 16 0.00 0.00
7:53 pm 19:53 Mostly Cloudy 70 21.1 53 11.7 55 55 NNE 12 19 29.81 1010 10 16 0.00 0.00
8:53 pm 20:53 Mostly Clear 66 18.9 55 12.8 68 68 NNE 24 39 29.85 1011 10 16 0.00 0.00
9:15 pm 21:15 Mostly Cloudy with Thunderstorms 63 17.2 55 12.8 76 76 NNE 21 33 29.90 1012 10 16 0.00 0.00
9:30 pm 21:30 Cloudy with Nearby Thunderstorms 62 16.7 56 13.3 80 80 N 20 31 29.91 1013 10 16 0.00 0.03
9:38 pm 21:38 Cloudy with Light Rain 61 16.1 56 13.3 84 84 NE 24 39 29.85 1011 10 16 0.00 0.03
9:53 pm 21:53 Mostly Cloudy 60 15.6 55 12.8 84 84 ENE 22 35 29.85 1011 10 16 0.00 0.03
10:53 pm 22:53 Mostly Cloudy 59 15 54 12.2 83 83 NE 17 28 29.86 1011 10 16 0.00 0.00
11:26 pm 23:26 Cloudy 59 15 53 11.7 81 81 NNE 21 33 29.88 1012 10 16 0.00 0.00
11:53 pm 23:53 Cloudy 59 15 53 11.7 81 81 NNE 18 30 29.87 1012 10 16 0.00 0.00

Powered by AerisWeather